Погода в Пуант-а-Питре

Гваделупа     16°14′27″N   61°32′07″W
темп.,
°C
ветер,
м/с
пор.,
м/с
влажн.,
%
обл.,
%
осадки,
мм/ч
давл.,
гПа
погр.,
м
27 ноября, сб
сб2723:00+24вюв2380100 0.0 1013134
02:00+24в1283100 0.0 1012118
05:00+24в118752 0.0 101287
08:00+26в238010 0.1 1014407
11:00+29вюв446859 0.1 10141109
14:00+29юв446936 0.4 10121107
17:00+26в238117 1.2 1012211
20:00+24всв239099 2.4 1014117
28 ноября, вс
вс2823:00+24в239086 0.9 1014108
02:00+24в239090 1.2 1013134
05:00+24в239082 0.1 1012132
08:00+26в348153 0.6 1014553
11:00+28вюв446984 0.6 10141068
14:00+28вюв446992 1.4 1012944
17:00+26в347899 0.9 1012324
20:00+24вюв248888 1.8 1014148
29 ноября, пн
пн2923:00+25вюв368886 2.1 1014242
02:00+24вюв358812 3.1 1012178
05:00+24вюв36905 5.4 1013241
08:00+26вюв47795 7.5 1014691
11:00+28вюв567024 0.1 10141118
14:00+28вюв567112 0.9 10121084
17:00+26вюв46817 1.1 1012385
20:00+25вюв47855 1.9 1014325
30 ноября, вт
вт3023:00+25в37895 0.1 1014274
02:00+25в478710 0.8 1013282
05:00+24вюв478913 0.8 1014299
08:00+26в578227 1.4 1015782
11:00+28в687221 0.8 10161149
14:00+29в676823 1.1 10131185
17:00+26в578041 0.8 1014537
20:00+25в598598 1.3 1015446
1 декабря, ср
ср123:00+25в598683 0.3 1015430
02:00+25в4886100 0.4 1014402
05:00+24в488752 0.4 1014385
08:00+26всв588119 1.4 1016783
11:00+29всв676858 0.5 10161279
14:00+28в677687 4.1 10141019
17:00+26всв588110 0.5 1014536
20:00+25всв498336 0.8 1016451